Aérodrome :
LOGIN :

S'inscrire | Disclaimer

   EN    FR    IT 

 










Légende :    VFR   VFR Marginal   IFR   IFR Intensif   IFR Très Intensif
Visi : 
Plafond : 
>= 8 km
>= 3000ft
5 à 8 km
1000 à 3000 ft
1500m à 5 km
500 à 1000 ft
800 à 1500m
200 à 500 ft
< 800m
< 200 ft
Symboles :   Orages  Brouillard  Fortes neiges  Fortes précipitations  Vent > 20 kt
SIGMETs :   Divers  Orages  Givrage  Turbulence  Onde Orograph.  Cendres Volcan.







- Altitude de l'aérodrome : 266 ft
- Code IATA : NCL
- Voir les cartes d'approche


EGNT - Newcastle

DERNIER METAR :
  • 190320Z 27011KT 9999 FEW015 11/09 Q1006

METARs EXPIRÉS :
  • 190250Z 27008KT 9999 FEW015 11/09 Q1006
  • 190220Z 26011KT 9999 FEW015 12/09 Q1006
  • 190150Z 27012KT 9999 FEW015 12/10 Q1005
  • 190120Z 27012KT 9999 FEW014 12/10 Q1005
  • 190050Z 26010KT 9999 FEW014 12/10 Q1005

TAF TAF EGNT
Valide du 19 à 00h jusqu'au 20 à 00h UTC


182257Z 1900/1924 26012KT 9999 FEW015
PROB30
TEMPO 1900/1906 26015G25KT
PROB30
TEMPO 1900/1902 8000 -RA BKN014
TEMPO 1906/1921 27018G28KT
PROB30
TEMPO 1910/1916 SHRA
ATIS : +44 191 214 3400
Pas de NOTAMs connus pour ce terrain.



MET'MAP, la Météo Aéronautique d'un coup d'oeil ! - Copyright ORBIFLY Décembre 2007 - Disclaimer

ORBIFLY MET'MAP TEAM :

Programmation & Développement : Alexandra Zaïnal
Conception & Développement : Baudouin d'Aumeries
Co-Programmation & Développement : Marc-Olivier Méhu
Soutien technique & logistique : Manuel Goepfert

Contact : metmap@orbifly.com




SOURCES & CREDITS :

   NOAA